This demonstration page uses our WeatherBlox Daily Observations layout. Learn more.

Left ArrowRight Arrow

Hourly Observations for May 30, 2018

Temp ( °F °C ) Dew Point ( °F °C ) Humidity (%) Winds ( mph kmh ) Pressure ( in mb ) Visibility ( mi km ) Precip ( " mm )
12:15 am 00:15 Clear 61 15.9 60 15.3 96 96 ESE 3 6 29.74 1007 10 16 N/A
12:35 am 00:35 Partly Cloudy 60 15.8 59 15.2 96 96 SE 6 9 29.74 1007 10 16 N/A
12:55 am 00:55 Clear 60 15.5 59 15 97 97 SE 5 7 29.74 1007 10 16 N/A
1:15 am 01:15 Partly Cloudy 59 15.1 59 14.8 98 98 SSE 5 7 29.74 1007 10 16 N/A
1:35 am 01:35 Mostly Cloudy 59 15.1 59 14.8 98 98 S 3 6 29.77 1008 10 16 N/A
1:55 am 01:55 Cloudy 59 15 59 14.9 99 99 SW 3 6 29.77 1008 10 16 N/A
2:15 am 02:15 Mostly Cloudy 59 14.9 58 14.7 99 99 SW 3 6 29.77 1008 10 16 N/A
2:35 am 02:35 Partly Cloudy 58 14.7 58 14.5 99 99 WSW 3 6 29.77 1008 10 16 N/A
2:55 am 02:55 Partly Cloudy 59 14.8 58 14.7 99 99 WSW 3 6 29.74 1007 10 16 N/A
3:15 am 03:15 Clear 59 14.8 58 14.6 99 99 N N/A 29.74 1007 10 16 N/A
3:35 am 03:35 Clear 58 14.6 58 14.5 99 99 S 3 6 29.74 1007 10 16 N/A
3:55 am 03:55 Clear 57 13.7 57 13.7 100 100 N N/A 29.77 1008 10 16 N/A
4:15 am 04:15 Clear 56 13.5 56 13.5 100 100 N N/A 29.77 1008 10 16 N/A
4:35 am 04:35 Clear 57 13.7 57 13.7 100 100 S 5 7 29.77 1008 10 16 N/A
4:55 am 04:55 Partly Cloudy 57 13.8 57 13.8 100 100 SSW 7 11 29.77 1008 10 16 N/A
5:15 am 05:15 Partly Cloudy 59 14.8 58 14.7 99 99 SW 7 11 29.74 1007 10 16 N/A
5:35 am 05:35 Clear 59 14.8 58 14.5 98 98 SSW 7 11 29.74 1007 10 16 N/A
5:55 am 05:55 Clear 58 14.6 58 14.6 100 100 SW 8 13 29.74 1007 10 16 N/A
6:15 am 06:15 Sunny 58 14.6 58 14.5 99 99 SW 8 13 29.74 1007 10 16 N/A
6:35 am 06:35 Sunny 58 14.5 58 14.4 99 99 SW 7 11 29.74 1007 10 16 N/A
6:55 am 06:55 Sunny 58 14.7 58 14.5 99 99 SW 9 15 29.74 1007 10 16 N/A
7:15 am 07:15 Sunny 59 15 58 14.2 95 95 WSW 9 15 29.74 1007 10 16 N/A
7:35 am 07:35 Sunny 60 15.5 57 14 91 91 WSW 10 17 29.74 1007 10 16 N/A
7:55 am 07:55 Sunny 61 16.1 57 13.8 86 86 W 12 19 29.74 1007 10 16 N/A
8:15 am 08:15 Sunny 62 16.5 57 13.8 84 84 W 16 26 29.74 1007 10 16 N/A
8:35 am 08:35 Sunny 62 16.9 57 14.1 84 84 W 12 19 29.74 1007 10 16 N/A
8:55 am 08:55 Sunny 64 17.7 57 14.1 80 80 W 16 26 29.71 1006 10 16 N/A
9:15 am 09:15 Sunny 65 18.1 58 14.3 79 79 W 15 24 29.71 1006 10 16 N/A
9:35 am 09:35 Sunny 66 18.8 58 14.7 77 77 W 12 19 29.71 1006 10 16 N/A
9:55 am 09:55 Sunny 67 19.3 59 15.1 77 77 WNW 13 20 29.71 1006 10 16 N/A
10:15 am 10:15 Sunny 68 20 60 15.6 76 76 WNW 12 19 29.71 1006 10 16 N/A
10:35 am 10:35 Sunny 70 20.9 59 15.2 70 70 WNW 13 20 29.71 1006 10 16 N/A
10:55 am 10:55 Sunny 71 21.7 59 15.2 67 67 WNW 14 22 29.68 1005 10 16 N/A
11:15 am 11:15 Sunny 73 22.5 60 15.5 65 65 WNW 10 17 29.68 1005 10 16 N/A
11:35 am 11:35 Sunny 73 23 60 15.4 62 62 WNW 12 19 29.68 1005 10 16 N/A
11:55 am 11:55 Sunny 74 23.6 60 15.8 62 62 WNW 14 22 29.68 1005 10 16 N/A
12:15 pm 12:15 Sunny 75 24.1 60 15.8 60 60 W 17 28 29.68 1005 10 16 N/A
12:35 pm 12:35 Sunny 76 24.5 60 15.4 57 57 WNW 16 26 29.68 1005 10 16 N/A
12:55 pm 12:55 Sunny 77 25 60 15.8 57 57 WNW 15 24 29.65 1004 10 16 N/A
1:15 pm 13:15 Sunny 78 25.6 61 16.2 56 56 WNW 14 22 29.65 1004 10 16 N/A
1:35 pm 13:35 Sunny 78 25.8 61 15.9 54 54 W 16 26 29.65 1004 10 16 N/A
1:55 pm 13:55 Sunny 80 26.6 60 15.8 52 52 WNW 15 24 29.65 1004 10 16 N/A
2:15 pm 14:15 Sunny 81 27 60 15.6 50 50 WNW 13 20 29.65 1004 10 16 N/A
2:35 pm 14:35 Sunny 81 27 58 14.7 47 47 WNW 13 20 29.65 1004 10 16 N/A
2:55 pm 14:55 Sunny 81 27.3 59 15.2 48 48 WNW 10 17 29.62 1003 10 16 N/A
3:15 pm 15:15 Sunny 82 27.5 59 14.8 46 46 WNW 13 20 29.62 1003 10 16 N/A
3:35 pm 15:35 Sunny 82 28 59 15 45 45 W 13 20 29.62 1003 10 16 N/A
3:55 pm 15:55 Sunny 82 28 56 13.5 41 41 WNW 13 20 29.62 1003 10 16 N/A
4:15 pm 16:15 Sunny 83 28.2 57 14 42 42 WNW 13 20 29.59 1002 10 16 N/A
4:35 pm 16:35 Sunny 83 28.4 57 13.8 41 41 WNW 15 24 29.56 1001 10 16 N/A
4:55 pm 16:55 Sunny 83 28.5 58 14.2 42 42 WNW 13 20 29.56 1001 10 16 N/A
5:15 pm 17:15 Sunny 83 28.6 58 14.3 42 42 NW 9 15 29.56 1001 10 16 N/A
5:35 pm 17:35 Sunny 84 28.7 56 13.4 39 39 NW 9 15 29.56 1001 10 16 N/A
5:55 pm 17:55 Sunny 84 28.7 56 13.3 39 39 NW 10 17 29.56 1001 10 16 N/A
6:15 pm 18:15 Sunny 84 28.7 56 13.1 38 38 NNW 7 11 29.56 1001 10 16 N/A
6:35 pm 18:35 Sunny 84 28.7 55 12.6 37 37 NW 7 11 29.56 1001 10 16 N/A
6:55 pm 18:55 Sunny 83 28.5 56 13.2 39 39 NW 6 9 29.56 1001 10 16 N/A
7:15 pm 19:15 Sunny 83 28.3 55 12.9 39 39 NW 6 9 29.56 1001 10 16 N/A
7:35 pm 19:35 Sunny 82 28 57 14.1 43 43 WNW 6 9 29.56 1001 10 16 N/A
7:55 pm 19:55 Sunny 82 27.6 56 13.6 42 42 WNW 3 6 29.59 1002 10 16 N/A
8:15 pm 20:15 Sunny 81 27 57 13.9 45 45 WNW 3 6 29.62 1003 10 16 N/A
8:35 pm 20:35 Sunny 78 25.6 61 16 55 55 W 5 7 29.62 1003 10 16 N/A
8:55 pm 20:55 Sunny 76 24.2 60 15.4 58 58 WSW 3 6 29.65 1004 10 16 N/A
9:15 pm 21:15 Clear 76 24.6 59 15 55 55 N N/A 29.62 1003 10 16 N/A
9:35 pm 21:35 Clear 74 23.2 61 16 64 64 SW 5 7 29.65 1004 10 16 N/A
9:55 pm 21:55 Clear 73 22.7 61 16.2 67 67 SW 3 6 29.68 1005 10 16 N/A
10:15 pm 22:15 Clear 72 22 61 16.1 69 69 SW 7 11 29.68 1005 10 16 N/A
10:35 pm 22:35 Clear 71 21.6 61 16 71 71 SW 3 6 29.68 1005 10 16 N/A
10:55 pm 22:55 Clear 71 21.6 60 15.3 68 68 N N/A 29.68 1005 10 16 N/A
11:15 pm 23:15 Clear 70 21.3 60 15.3 69 69 N N/A 29.68 1005 10 16 N/A
11:35 pm 23:35 Clear 67 19.6 60 15.5 77 77 N N/A 29.71 1006 10 16 N/A
11:55 pm 23:55 Clear 67 19.5 60 15.6 78 78 N N/A 29.71 1006 10 16 N/A

Powered by AerisWeather